Location: Kellogg
(38.0159°N, 90.0546°W)
Time: 07:17:41
(UTC+00:00)

Vanguard 1 Rocket - Pass Details

Date: 15 September 2024
Orbit: 650 x 4218 km, 34.3° (Epoch: 09 October)

Event Time Altitude Azimuth Distance (km) Brightness Sun altitude
Rises 12:34:10 0° 271° (W) 6,548 11.1 9.3°
Reaches altitude 10° 12:37:48 10° 270° (W) 5,898 10.9 10.0°
Maximum altitude 12:58:54 79° 189° (S) 4,143 11.0 14.2°
Drops below altitude 10° 13:24:56 10° 108° (ESE) 7,004 14.2 19.2°
Sets 13:29:45 0° 107° (ESE) 7,751 13.8 20.1°
